{"data":{"norad_id":47346,"intl_designator":"2021-004A","name":"GMS-T","alt_names":[],"object_type":"PAYLOAD","status":"ACTIVE","operator":null,"country":"GER","launch_date":"2021-01-20","launch_site_code":"RLLB","launch_vehicle":null,"mission":null,"orbit_class":"UNKNOWN","rcs_meters":null,"size_class":null,"mass_kg":null,"dimensions":null,"purposes":[],"wikipedia_slug":null,"has_3d_model":false,"image_url":null,"decayed_at":null,"tle_current":{"epoch":"2026-09-20T21:58:14.681280Z","epoch_age_seconds":40682,"freshness":"FRESH","line1":"1 47346U 21004A   26263.91544770  .00000036  00000+0  73091-4 0  9999","line2":"2 47346  90.1287 242.9994 0004079 118.3482 241.8062 13.16659031272198","mean_motion":13.16659031,"eccentricity":0.0004079,"inclination_deg":90.1287,"raan_deg":242.9994,"arg_perigee_deg":118.3482,"mean_anomaly_deg":241.8062,"bstar":7.3091e-5,"rev_number":27219,"period_min":109.36772285732,"perigee_km":1194.4180916428,"apogee_km":1200.5983029947,"semimajor_km":7575.6451973187,"source":"CELESTRAK","updated_at":"2026-09-21T09:00:07.514230Z"}}}